Time,TemperatureF,DewpointF,PressureIn,WindDirection,WindDirectionDegrees,WindSpeedMPH,WindSpeedGustMPH,Humidity,HourlyPrecipIn,Conditions,Clouds,dailyrainin,SolarRadiationWatts/m^2,SoftwareType,DateUTC
2013-05-25 00:00:00,75.0,72.2,30.08,ENE,75,0.0,4.0,91,0.00,,,0.00,0,Wunderground v.1.15,2013-05-25 05:00:00,
2013-05-25 00:05:00,74.9,72.1,30.08,ENE,76,0.0,4.0,91,0.00,,,0.00,0,Wunderground v.1.15,2013-05-25 05:05:00,
2013-05-25 00:10:00,74.8,72.0,30.08,ENE,75,0.0,4.0,91,0.00,,,0.00,0,Wunderground v.1.15,2013-05-25 05:10:00,
2013-05-25 00:15:00,74.8,72.0,30.08,ENE,76,0.0,4.0,91,0.00,,,0.00,0,Wunderground v.1.15,2013-05-25 05:15:00,
2013-05-25 00:20:00,74.7,71.9,30.08,ENE,76,0.0,4.0,91,0.00,,,0.00,0,Wunderground v.1.15,2013-05-25 05:20:00,
2013-05-25 00:25:00,74.6,72.1,30.08,ENE,75,0.0,4.0,92,0.00,,,0.00,0,Wunderground v.1.15,2013-05-25 05:25:00,
2013-05-25 00:30:00,74.6,72.1,30.07,ENE,76,0.0,4.0,92,0.00,,,0.00,0,Wunderground v.1.15,2013-05-25 05:30:00,
2013-05-25 00:40:00,74.5,72.0,30.07,ENE,76,0.0,4.0,92,0.00,,,0.00,0,Wunderground v.1.15,2013-05-25 05:40:00,
2013-05-25 00:45:00,74.4,71.9,30.07,ENE,76,0.0,4.0,92,0.00,,,0.00,0,Wunderground v.1.15,2013-05-25 05:45:00,
2013-05-25 00:50:00,74.3,71.8,30.07,ENE,76,0.0,4.0,92,0.00,,,0.00,0,Wunderground v.1.15,2013-05-25 05:50:00,
2013-05-25 01:00:00,74.3,71.8,30.06,ENE,75,0.0,4.0,92,0.00,,,0.00,0,Wunderground v.1.15,2013-05-25 06:00:00,
2013-05-25 01:05:00,74.3,72.1,30.06,ENE,76,0.0,4.0,93,0.00,,,0.00,0,Wunderground v.1.15,2013-05-25 06:05:00,
2013-05-25 01:10:00,74.3,72.1,30.06,ENE,76,0.0,4.0,93,0.00,,,0.00,0,Wunderground v.1.15,2013-05-25 06:10:00,
2013-05-25 01:15:00,74.3,72.1,30.06,ENE,76,0.0,4.0,93,0.00,,,0.00,0,Wunderground v.1.15,2013-05-25 06:15:00,
2013-05-25 01:20:00,74.3,72.1,30.06,ENE,76,0.0,4.0,93,0.00,,,0.00,0,Wunderground v.1.15,2013-05-25 06:20:00,
2013-05-25 01:30:00,74.3,72.1,30.06,ENE,76,0.0,4.0,93,0.00,,,0.00,0,Wunderground v.1.15,2013-05-25 06:30:00,
2013-05-25 01:35:00,74.3,72.1,30.07,ENE,75,0.0,4.0,93,0.00,,,0.00,0,Wunderground v.1.15,2013-05-25 06:35:00,
2013-05-25 01:45:00,74.2,72.0,30.06,ENE,76,0.0,4.0,93,0.00,,,0.00,0,Wunderground v.1.15,2013-05-25 06:45:00,
2013-05-25 01:50:00,74.2,72.0,30.07,ENE,76,0.0,4.0,93,0.00,,,0.00,0,Wunderground v.1.15,2013-05-25 06:50:00,
2013-05-25 01:55:00,74.2,72.0,30.07,ENE,76,0.0,4.0,93,0.00,,,0.00,0,Wunderground v.1.15,2013-05-25 06:55:00,
2013-05-25 02:05:00,74.3,72.1,30.07,ENE,76,0.0,4.0,93,0.00,,,0.00,0,Wunderground v.1.15,2013-05-25 07:05:00,
2013-05-25 02:10:00,74.3,72.1,30.06,ENE,75,0.0,4.0,93,0.00,,,0.00,0,Wunderground v.1.15,2013-05-25 07:10:00,
2013-05-25 02:15:00,74.2,72.0,30.06,ENE,76,0.0,4.0,93,0.00,,,0.00,0,Wunderground v.1.15,2013-05-25 07:15:00,
2013-05-25 02:20:00,74.2,72.0,30.06,ENE,75,0.0,4.0,93,0.00,,,0.00,0,Wunderground v.1.15,2013-05-25 07:20:00,
2013-05-25 02:25:00,74.2,72.0,30.06,ENE,76,0.0,4.0,93,0.00,,,0.00,0,Wunderground v.1.15,2013-05-25 07:25:00,
2013-05-25 02:35:00,74.1,71.9,30.06,ENE,75,0.0,4.0,93,0.00,,,0.00,0,Wunderground v.1.15,2013-05-25 07:35:00,
2013-05-25 02:45:00,74.2,72.4,30.06,ENE,75,0.0,4.0,94,0.00,,,0.00,0,Wunderground v.1.15,2013-05-25 07:45:00,
2013-05-25 02:50:00,74.3,72.5,30.06,ENE,76,0.0,4.0,94,0.00,,,0.00,0,Wunderground v.1.15,2013-05-25 07:50:00,
2013-05-25 02:55:00,74.3,72.5,30.06,ENE,75,0.0,4.0,94,0.00,,,0.00,0,Wunderground v.1.15,2013-05-25 07:55:00,
2013-05-25 03:00:00,74.3,72.5,30.05,ENE,76,0.0,4.0,94,0.00,,,0.00,0,Wunderground v.1.15,2013-05-25 08:00:00,
2013-05-25 03:05:00,74.2,72.4,30.05,ENE,75,0.0,4.0,94,0.00,,,0.00,0,Wunderground v.1.15,2013-05-25 08:05:00,
2013-05-25 03:10:00,74.2,72.4,30.05,ENE,75,0.0,4.0,94,0.00,,,0.00,0,Wunderground v.1.15,2013-05-25 08:10:00,
2013-05-25 03:15:00,74.2,72.4,30.05,ENE,76,0.0,4.0,94,0.00,,,0.00,0,Wunderground v.1.15,2013-05-25 08:15:00,
2013-05-25 03:20:00,74.2,72.4,30.05,ENE,75,0.0,4.0,94,0.00,,,0.00,0,Wunderground v.1.15,2013-05-25 08:20:00,
2013-05-25 03:25:00,74.2,72.4,30.05,ENE,76,0.0,4.0,94,0.00,,,0.00,0,Wunderground v.1.15,2013-05-25 08:25:00,
2013-05-25 03:30:00,74.2,72.4,30.05,ENE,76,0.0,4.0,94,0.00,,,0.00,0,Wunderground v.1.15,2013-05-25 08:30:00,
2013-05-25 03:40:00,74.2,72.4,30.05,ENE,75,0.0,4.0,94,0.00,,,0.00,0,Wunderground v.1.15,2013-05-25 08:40:00,
2013-05-25 03:50:00,74.2,72.4,30.05,ENE,76,0.0,4.0,94,0.00,,,0.00,0,Wunderground v.1.15,2013-05-25 08:50:00,
2013-05-25 03:55:00,74.2,72.4,30.05,ENE,75,0.0,4.0,94,0.00,,,0.00,0,Wunderground v.1.15,2013-05-25 08:55:00,
2013-05-25 04:00:00,74.1,72.3,30.05,ENE,76,0.0,4.0,94,0.00,,,0.00,0,Wunderground v.1.15,2013-05-25 09:00:00,
2013-05-25 04:05:00,74.1,72.3,30.04,ENE,76,0.0,4.0,94,0.00,,,0.00,0,Wunderground v.1.15,2013-05-25 09:05:00,
2013-05-25 04:10:00,74.1,72.3,30.04,ENE,76,0.0,4.0,94,0.00,,,0.00,0,Wunderground v.1.15,2013-05-25 09:10:00,
2013-05-25 04:20:00,74.0,72.2,30.04,ENE,75,0.0,4.0,94,0.00,,,0.00,0,Wunderground v.1.15,2013-05-25 09:20:00,
2013-05-25 04:25:00,74.0,72.2,30.04,ENE,76,0.0,4.0,94,0.00,,,0.00,0,Wunderground v.1.15,2013-05-25 09:25:00,
2013-05-25 04:30:00,74.0,72.2,30.04,ENE,75,0.0,4.0,94,0.00,,,0.00,0,Wunderground v.1.15,2013-05-25 09:30:00,
2013-05-25 04:35:00,73.9,72.1,30.04,ENE,76,0.0,4.0,94,0.00,,,0.00,0,Wunderground v.1.15,2013-05-25 09:35:00,
2013-05-25 04:45:00,73.9,72.1,30.04,ENE,76,0.0,4.0,94,0.00,,,0.00,0,Wunderground v.1.15,2013-05-25 09:45:00,
2013-05-25 04:55:00,73.9,72.1,30.04,ENE,75,0.0,4.0,94,0.00,,,0.00,0,Wunderground v.1.15,2013-05-25 09:55:00,
2013-05-25 05:00:00,73.9,72.1,30.04,ENE,76,0.0,4.0,94,0.00,,,0.00,0,Wunderground v.1.15,2013-05-25 10:00:00,
2013-05-25 05:05:00,73.8,72.0,30.04,ENE,75,0.0,4.0,94,0.00,,,0.00,0,Wunderground v.1.15,2013-05-25 10:05:00,
2013-05-25 05:10:00,73.9,72.1,30.04,ENE,76,0.0,4.0,94,0.00,,,0.00,0,Wunderground v.1.15,2013-05-25 10:10:00,
2013-05-25 05:15:00,73.9,72.1,30.04,ENE,75,0.0,4.0,94,0.00,,,0.00,0,Wunderground v.1.15,2013-05-25 10:15:00,
2013-05-25 05:20:00,73.9,72.1,30.04,ENE,75,0.0,4.0,94,0.00,,,0.00,0,Wunderground v.1.15,2013-05-25 10:20:00,
2013-05-25 05:25:00,74.0,72.2,30.04,ENE,76,0.0,4.0,94,0.00,,,0.00,0,Wunderground v.1.15,2013-05-25 10:25:00,
2013-05-25 05:30:00,74.0,72.2,30.04,ENE,75,0.0,4.0,94,0.00,,,0.00,0,Wunderground v.1.15,2013-05-25 10:30:00,
2013-05-25 05:35:00,74.0,72.2,30.04,ENE,76,0.0,4.0,94,0.00,,,0.00,0,Wunderground v.1.15,2013-05-25 10:35:00,
2013-05-25 05:40:00,74.0,72.2,30.04,ENE,76,0.0,4.0,94,0.00,,,0.00,0,Wunderground v.1.15,2013-05-25 10:40:00,
2013-05-25 05:45:00,74.0,72.5,30.04,ENE,76,0.0,4.0,95,0.00,,,0.00,0,Wunderground v.1.15,2013-05-25 10:45:00,
2013-05-25 05:55:00,74.1,72.6,30.04,SE,132,0.0,4.0,95,0.00,,,0.00,0,Wunderground v.1.15,2013-05-25 10:55:00,
2013-05-25 06:05:00,74.2,72.7,30.04,ESE,117,0.0,4.0,95,0.00,,,0.00,0,Wunderground v.1.15,2013-05-25 11:05:00,
2013-05-25 06:10:00,74.3,72.8,30.04,East,101,0.0,4.0,95,0.00,,,0.00,0,Wunderground v.1.15,2013-05-25 11:10:00,
2013-05-25 06:15:00,74.4,72.9,30.04,East,101,0.0,4.0,95,0.00,,,0.00,0,Wunderground v.1.15,2013-05-25 11:15:00,
2013-05-25 06:20:00,74.4,72.9,30.05,East,101,0.0,4.0,95,0.00,,,0.00,0,Wunderground v.1.15,2013-05-25 11:20:00,
2013-05-25 06:25:00,74.3,72.8,30.06,East,101,0.0,4.0,95,0.00,,,0.00,0,Wunderground v.1.15,2013-05-25 11:25:00,
2013-05-25 06:30:00,74.3,72.8,30.06,East,101,0.0,4.0,95,0.00,,,0.00,0,Wunderground v.1.15,2013-05-25 11:30:00,
2013-05-25 06:35:00,74.3,72.8,30.07,East,101,0.0,4.0,95,0.00,,,0.00,0,Wunderground v.1.15,2013-05-25 11:35:00,
2013-05-25 06:40:00,74.4,72.9,30.07,East,101,0.0,4.0,95,0.00,,,0.00,0,Wunderground v.1.15,2013-05-25 11:40:00,
2013-05-25 06:45:00,74.4,72.9,30.07,East,101,0.0,4.0,95,0.00,,,0.00,5,Wunderground v.1.15,2013-05-25 11:45:00,
2013-05-25 06:50:00,74.4,72.9,30.07,East,101,0.0,4.0,95,0.00,,,0.00,7,Wunderground v.1.15,2013-05-25 11:50:00,
2013-05-25 07:00:00,74.5,73.0,30.07,East,101,0.0,4.0,95,0.00,,,0.00,9,Wunderground v.1.15,2013-05-25 12:00:00,
2013-05-25 07:10:00,74.6,73.1,30.08,East,101,0.0,4.0,95,0.00,,,0.00,14,Wunderground v.1.15,2013-05-25 12:10:00,
2013-05-25 07:15:00,74.7,73.2,30.07,East,101,0.0,4.0,95,0.00,,,0.00,21,Wunderground v.1.15,2013-05-25 12:15:00,
2013-05-25 07:20:00,74.7,73.2,30.08,East,101,0.0,4.0,95,0.00,,,0.00,26,Wunderground v.1.15,2013-05-25 12:20:00,
2013-05-25 07:25:00,74.8,73.3,30.08,East,101,0.0,4.0,95,0.00,,,0.00,33,Wunderground v.1.15,2013-05-25 12:25:00,
2013-05-25 07:30:00,74.9,73.4,30.09,East,101,0.0,4.0,95,0.00,,,0.00,42,Wunderground v.1.15,2013-05-25 12:30:00,
2013-05-25 07:35:00,75.0,73.5,30.08,East,101,0.0,4.0,95,0.00,,,0.00,46,Wunderground v.1.15,2013-05-25 12:35:00,
2013-05-25 07:45:00,75.2,73.7,30.08,East,101,0.0,4.0,95,0.00,,,0.00,46,Wunderground v.1.15,2013-05-25 12:45:00,
2013-05-25 07:50:00,75.3,73.5,30.08,East,101,0.0,4.0,94,0.00,,,0.00,51,Wunderground v.1.15,2013-05-25 12:50:00,
2013-05-25 08:00:00,75.5,73.7,30.08,East,99,0.0,4.0,94,0.00,,,0.00,54,Wunderground v.1.15,2013-05-25 13:00:00,
2013-05-25 08:05:00,75.6,73.8,30.09,East,98,0.0,4.0,94,0.00,,,0.00,51,Wunderground v.1.15,2013-05-25 13:05:00,
2013-05-25 08:10:00,75.7,73.8,30.09,East,98,0.0,4.0,94,0.00,,,0.00,53,Wunderground v.1.15,2013-05-25 13:10:00,
2013-05-25 08:20:00,75.9,74.0,30.10,East,98,0.0,4.0,94,0.00,,,0.00,60,Wunderground v.1.15,2013-05-25 13:20:00,
2013-05-25 08:25:00,76.1,74.2,30.10,East,98,0.0,4.0,94,0.00,,,0.00,74,Wunderground v.1.15,2013-05-25 13:25:00,
2013-05-25 08:30:00,76.2,74.3,30.10,East,98,0.0,4.0,94,0.00,,,0.00,91,Wunderground v.1.15,2013-05-25 13:30:00,
2013-05-25 08:35:00,76.4,74.5,30.10,SE,132,0.0,4.0,94,0.00,,,0.00,98,Wunderground v.1.15,2013-05-25 13:35:00,
2013-05-25 08:40:00,76.5,74.3,30.10,SE,132,0.0,4.0,93,0.00,,,0.00,111,Wunderground v.1.15,2013-05-25 13:40:00,
2013-05-25 08:50:00,77.0,74.5,30.10,ESE,115,0.0,4.0,92,0.00,,,0.00,125,Wunderground v.1.15,2013-05-25 13:50:00,
2013-05-25 08:55:00,77.2,74.7,30.10,ESE,115,0.0,4.0,92,0.00,,,0.00,130,Wunderground v.1.15,2013-05-25 13:55:00,
2013-05-25 09:05:00,77.7,74.9,30.10,NNE,19,0.0,4.0,91,0.00,,,0.00,178,Wunderground v.1.15,2013-05-25 14:05:00,
2013-05-25 09:10:00,78.0,75.2,30.10,NNE,18,0.0,4.0,91,0.00,,,0.00,167,Wunderground v.1.15,2013-05-25 14:10:00,
2013-05-25 09:15:00,78.3,75.5,30.10,NE,55,0.0,4.0,91,0.00,,,0.00,148,Wunderground v.1.15,2013-05-25 14:15:00,
2013-05-25 09:20:00,78.5,75.3,30.10,ENE,68,0.0,4.0,90,0.00,,,0.00,137,Wunderground v.1.15,2013-05-25 14:20:00,
2013-05-25 09:25:00,78.6,75.1,30.10,ENE,68,0.0,4.0,89,0.00,,,0.00,134,Wunderground v.1.15,2013-05-25 14:25:00,
2013-05-25 09:30:00,78.7,75.2,30.10,ENE,69,0.0,4.0,89,0.00,,,0.00,139,Wunderground v.1.15,2013-05-25 14:30:00,
2013-05-25 09:35:00,78.7,74.8,30.10,ENE,68,0.0,4.0,88,0.00,,,0.00,121,Wunderground v.1.15,2013-05-25 14:35:00,
2013-05-25 09:40:00,78.7,74.8,30.10,ENE,71,0.0,4.0,88,0.00,,,0.00,135,Wunderground v.1.15,2013-05-25 14:40:00,
2013-05-25 09:45:00,78.7,74.5,30.10,SSE,149,0.0,4.0,87,0.00,,,0.00,137,Wunderground v.1.15,2013-05-25 14:45:00,
2013-05-25 09:50:00,78.7,74.5,30.10,ENE,74,0.0,4.0,87,0.00,,,0.00,149,Wunderground v.1.15,2013-05-25 14:50:00,
2013-05-25 09:55:00,78.8,74.6,30.10,ENE,74,0.0,4.0,87,0.00,,,0.00,144,Wunderground v.1.15,2013-05-25 14:55:00,
2013-05-25 10:00:00,78.9,74.7,30.10,SE,146,0.0,4.0,87,0.00,,,0.00,102,Wunderground v.1.15,2013-05-25 15:00:00,
2013-05-25 10:05:00,79.1,74.9,30.10,East,82,0.0,4.0,87,0.00,,,0.00,153,Wunderground v.1.15,2013-05-25 15:05:00,
2013-05-25 10:15:00,79.5,74.9,30.09,East,80,0.0,4.0,86,0.00,,,0.00,308,Wunderground v.1.15,2013-05-25 15:15:00,
2013-05-25 10:20:00,80.0,75.4,30.09,East,84,0.0,4.0,86,0.00,,,0.00,454,Wunderground v.1.15,2013-05-25 15:20:00,
2013-05-25 10:25:00,80.9,76.0,30.09,ENE,74,0.0,4.0,85,0.00,,,0.00,327,Wunderground v.1.15,2013-05-25 15:25:00,
2013-05-25 10:35:00,82.3,75.9,30.09,ENE,71,0.0,4.0,81,0.00,,,0.00,262,Wunderground v.1.15,2013-05-25 15:35:00,
2013-05-25 10:40:00,82.7,75.9,30.09,ENE,75,0.0,4.0,80,0.00,,,0.00,236,Wunderground v.1.15,2013-05-25 15:40:00,
2013-05-25 10:45:00,83.2,76.0,30.09,East,82,0.0,4.0,79,0.00,,,0.00,802,Wunderground v.1.15,2013-05-25 15:45:00,
2013-05-25 10:50:00,83.8,76.2,30.09,ENE,69,0.0,4.0,78,0.00,,,0.00,740,Wunderground v.1.15,2013-05-25 15:50:00,
2013-05-25 11:00:00,84.1,75.3,30.09,ENE,57,0.0,4.0,75,0.00,,,0.00,295,Wunderground v.1.15,2013-05-25 16:00:00,
2013-05-25 11:10:00,83.8,75.8,30.09,East,84,0.0,4.0,77,0.00,,,0.00,394,Wunderground v.1.15,2013-05-25 16:10:00,
2013-05-25 11:15:00,83.6,75.2,30.09,East,93,0.0,4.0,76,0.00,,,0.00,285,Wunderground v.1.15,2013-05-25 16:15:00,
2013-05-25 11:20:00,83.3,74.9,30.10,SE,140,0.0,4.0,76,0.00,,,0.00,246,Wunderground v.1.15,2013-05-25 16:20:00,
2013-05-25 11:25:00,83.3,74.9,30.10,ESE,103,0.0,4.0,76,0.00,,,0.00,306,Wunderground v.1.15,2013-05-25 16:25:00,
2013-05-25 11:30:00,83.2,74.8,30.10,ENE,69,0.0,4.0,76,0.00,,,0.00,260,Wunderground v.1.15,2013-05-25 16:30:00,
2013-05-25 11:40:00,83.0,74.6,30.10,WNW,303,0.0,4.0,76,0.00,,,0.00,251,Wunderground v.1.15,2013-05-25 16:40:00,
2013-05-25 11:45:00,82.8,74.1,30.10,ENE,74,0.0,4.0,75,0.00,,,0.00,220,Wunderground v.1.15,2013-05-25 16:45:00,
2013-05-25 11:50:00,82.8,74.1,30.11,ENE,69,0.0,4.0,75,0.00,,,0.00,192,Wunderground v.1.15,2013-05-25 16:50:00,
2013-05-25 11:55:00,82.7,74.0,30.11,ENE,76,0.0,4.0,75,0.00,,,0.00,165,Wunderground v.1.15,2013-05-25 16:55:00,
2013-05-25 12:05:00,82.3,74.0,30.11,SE,144,0.0,4.0,76,0.00,,,0.00,171,Wunderground v.1.15,2013-05-25 17:05:00,
2013-05-25 12:10:00,82.0,74.1,30.11,ESE,103,0.0,4.0,77,0.00,,,0.00,169,Wunderground v.1.15,2013-05-25 17:10:00,
2013-05-25 12:15:00,81.9,74.0,30.11,ENE,76,0.0,4.0,77,0.00,,,0.00,171,Wunderground v.1.15,2013-05-25 17:15:00,
2013-05-25 12:20:00,81.9,74.0,30.11,East,83,0.0,4.0,77,0.00,,,0.00,178,Wunderground v.1.15,2013-05-25 17:20:00,
2013-05-25 12:25:00,82.0,74.1,30.10,East,83,0.0,4.0,77,0.00,,,0.00,181,Wunderground v.1.15,2013-05-25 17:25:00,
2013-05-25 12:30:00,82.0,74.1,30.11,SE,125,0.0,4.0,77,0.00,,,0.00,190,Wunderground v.1.15,2013-05-25 17:30:00,
2013-05-25 12:35:00,82.0,73.7,30.11,ENE,70,0.0,4.0,76,0.00,,,0.00,209,Wunderground v.1.15,2013-05-25 17:35:00,
2013-05-25 12:40:00,82.1,73.8,30.11,ENE,71,0.0,4.0,76,0.00,,,0.00,227,Wunderground v.1.15,2013-05-25 17:40:00,
2013-05-25 12:50:00,82.3,74.4,30.11,SSE,161,0.0,4.0,77,0.00,,,0.00,253,Wunderground v.1.15,2013-05-25 17:50:00,
2013-05-25 12:55:00,82.6,74.7,30.11,SSE,161,0.0,4.0,77,0.00,,,0.00,269,Wunderground v.1.15,2013-05-25 17:55:00,
2013-05-25 13:00:00,82.9,75.3,30.11,SE,140,0.0,4.0,78,0.00,,,0.00,251,Wunderground v.1.15,2013-05-25 18:00:00,
2013-05-25 13:10:00,83.4,74.6,30.10,East,94,0.0,4.0,75,0.00,,,0.00,304,Wunderground v.1.15,2013-05-25 18:10:00,
2013-05-25 13:15:00,83.4,74.2,30.10,East,94,0.0,4.0,74,0.00,,,0.00,250,Wunderground v.1.15,2013-05-25 18:15:00,
2013-05-25 13:25:00,83.4,74.2,30.10,East,82,0.0,4.0,74,0.00,,,0.00,287,Wunderground v.1.15,2013-05-25 18:25:00,
2013-05-25 13:30:00,83.6,74.4,30.10,East,82,0.0,4.0,74,0.00,,,0.00,290,Wunderground v.1.15,2013-05-25 18:30:00,
2013-05-25 13:35:00,83.7,74.5,30.10,ENE,74,0.0,4.0,74,0.00,,,0.00,279,Wunderground v.1.15,2013-05-25 18:35:00,
2013-05-25 13:40:00,83.8,74.2,30.10,ESE,123,0.0,4.0,73,0.00,,,0.00,269,Wunderground v.1.15,2013-05-25 18:40:00,
2013-05-25 13:45:00,83.8,73.8,30.10,ENE,72,0.0,4.0,72,0.00,,,0.00,271,Wunderground v.1.15,2013-05-25 18:45:00,
2013-05-25 13:55:00,83.8,74.2,30.09,SSW,206,0.0,4.0,73,0.00,,,0.00,255,Wunderground v.1.15,2013-05-25 18:55:00,
2013-05-25 14:00:00,83.9,74.7,30.09,ENE,69,0.0,4.0,74,0.00,,,0.00,246,Wunderground v.1.15,2013-05-25 19:00:00,
2013-05-25 14:05:00,84.0,74.4,30.09,ENE,61,0.0,4.0,73,0.00,,,0.00,176,Wunderground v.1.15,2013-05-25 19:05:00,
2013-05-25 14:15:00,84.0,74.8,30.09,ENE,67,0.0,4.0,74,0.00,,,0.00,209,Wunderground v.1.15,2013-05-25 19:15:00,
2013-05-25 14:20:00,83.9,74.7,30.08,ESE,109,0.0,4.0,74,0.00,,,0.00,207,Wunderground v.1.15,2013-05-25 19:20:00,
2013-05-25 14:30:00,83.7,74.9,30.08,East,92,0.0,4.0,75,0.00,,,0.00,137,Wunderground v.1.15,2013-05-25 19:30:00,
2013-05-25 14:35:00,83.6,74.8,30.08,East,92,0.0,4.0,75,0.00,,,0.00,167,Wunderground v.1.15,2013-05-25 19:35:00,
2013-05-25 14:40:00,83.6,75.2,30.08,East,92,0.0,4.0,76,0.00,,,0.00,223,Wunderground v.1.15,2013-05-25 19:40:00,
2013-05-25 14:45:00,83.6,74.8,30.07,East,95,0.0,4.0,75,0.00,,,0.00,225,Wunderground v.1.15,2013-05-25 19:45:00,
2013-05-25 14:50:00,83.5,73.9,30.08,East,94,0.0,4.0,73,0.00,,,0.00,153,Wunderground v.1.15,2013-05-25 19:50:00,
2013-05-25 14:55:00,83.5,74.3,30.08,ESE,109,0.0,4.0,74,0.00,,,0.00,199,Wunderground v.1.15,2013-05-25 19:55:00,
2013-05-25 15:00:00,83.4,74.6,30.08,ESE,107,0.0,4.0,75,0.00,,,0.00,209,Wunderground v.1.15,2013-05-25 20:00:00,
2013-05-25 15:05:00,83.4,74.2,30.08,East,92,0.0,4.0,74,0.00,,,0.00,230,Wunderground v.1.15,2013-05-25 20:05:00,
2013-05-25 15:10:00,83.3,73.7,30.07,East,92,0.0,4.0,73,0.00,,,0.00,234,Wunderground v.1.15,2013-05-25 20:10:00,
2013-05-25 15:15:00,83.2,74.0,30.07,East,90,0.0,4.0,74,0.00,,,0.00,237,Wunderground v.1.15,2013-05-25 20:15:00,
2013-05-25 15:25:00,83.2,74.4,30.07,East,90,0.0,4.0,75,0.00,,,0.00,237,Wunderground v.1.15,2013-05-25 20:25:00,
2013-05-25 15:30:00,83.4,75.0,30.06,East,90,0.0,4.0,76,0.00,,,0.00,244,Wunderground v.1.15,2013-05-25 20:30:00,
2013-05-25 15:40:00,83.7,74.9,30.06,East,87,0.0,4.0,75,0.00,,,0.00,239,Wunderground v.1.15,2013-05-25 20:40:00,
2013-05-25 15:45:00,83.8,74.6,30.06,East,88,0.0,4.0,74,0.00,,,0.00,244,Wunderground v.1.15,2013-05-25 20:45:00,
2013-05-25 15:50:00,83.8,75.0,30.06,East,88,0.0,4.0,75,0.00,,,0.00,227,Wunderground v.1.15,2013-05-25 20:50:00,
2013-05-25 15:55:00,83.9,74.7,30.06,East,88,0.0,4.0,74,0.00,,,0.00,207,Wunderground v.1.15,2013-05-25 20:55:00,
2013-05-25 16:00:00,83.8,74.6,30.06,East,87,0.0,4.0,74,0.00,,,0.00,185,Wunderground v.1.15,2013-05-25 21:00:00,
2013-05-25 16:10:00,83.7,74.5,30.05,East,96,0.0,4.0,74,0.00,,,0.00,188,Wunderground v.1.15,2013-05-25 21:10:00,
2013-05-25 16:15:00,83.6,74.4,30.05,East,98,0.0,4.0,74,0.00,,,0.00,193,Wunderground v.1.15,2013-05-25 21:15:00,
2013-05-25 16:20:00,83.5,74.3,30.05,SE,127,0.0,4.0,74,0.00,,,0.00,162,Wunderground v.1.15,2013-05-25 21:20:00,
2013-05-25 16:30:00,83.2,74.0,30.05,ESE,113,0.0,4.0,74,0.00,,,0.00,137,Wunderground v.1.15,2013-05-25 21:30:00,
2013-05-25 16:35:00,83.1,73.9,30.05,East,84,0.0,4.0,74,0.00,,,0.00,118,Wunderground v.1.15,2013-05-25 21:35:00,
2013-05-25 16:45:00,82.7,74.0,30.04,NE,50,0.0,4.0,75,0.00,,,0.00,102,Wunderground v.1.15,2013-05-25 21:45:00,
2013-05-25 16:50:00,82.6,73.9,30.04,ENE,76,0.0,4.0,75,0.00,,,0.00,69,Wunderground v.1.15,2013-05-25 21:50:00,
2013-05-25 16:55:00,82.4,73.7,30.04,East,95,0.0,4.0,75,0.00,,,0.00,90,Wunderground v.1.15,2013-05-25 21:55:00,
2013-05-25 17:00:00,82.3,74.0,30.04,East,90,0.0,4.0,76,0.00,,,0.00,83,Wunderground v.1.15,2013-05-25 22:00:00,
2013-05-25 17:05:00,82.2,73.9,30.03,East,90,0.0,4.0,76,0.00,,,0.00,86,Wunderground v.1.15,2013-05-25 22:05:00,
2013-05-25 17:10:00,82.0,73.7,30.03,NE,52,0.0,4.0,76,0.00,,,0.00,77,Wunderground v.1.15,2013-05-25 22:10:00,
2013-05-25 17:15:00,81.8,73.5,30.03,East,85,0.0,4.0,76,0.00,,,0.00,67,Wunderground v.1.15,2013-05-25 22:15:00,
2013-05-25 17:20:00,81.6,73.7,30.03,East,84,0.0,4.0,77,0.00,,,0.00,60,Wunderground v.1.15,2013-05-25 22:20:00,
2013-05-25 17:25:00,81.4,73.5,30.03,ESE,109,0.0,4.0,77,0.00,,,0.00,56,Wunderground v.1.15,2013-05-25 22:25:00,
2013-05-25 17:30:00,81.4,73.9,30.03,ESE,109,0.0,4.0,78,0.00,,,0.00,53,Wunderground v.1.15,2013-05-25 22:30:00,
2013-05-25 17:40:00,81.2,74.1,30.03,ESE,109,0.0,4.0,79,0.00,,,0.00,49,Wunderground v.1.15,2013-05-25 22:40:00,
2013-05-25 17:45:00,81.1,74.0,30.03,ESE,109,0.0,4.0,79,0.00,,,0.00,46,Wunderground v.1.15,2013-05-25 22:45:00,
2013-05-25 17:55:00,80.7,73.6,30.03,ESE,109,0.0,4.0,79,0.00,,,0.00,42,Wunderground v.1.15,2013-05-25 22:55:00,
2013-05-25 18:00:00,80.6,73.5,30.03,ESE,109,0.0,4.0,79,0.00,,,0.00,39,Wunderground v.1.15,2013-05-25 23:00:00,
2013-05-25 18:05:00,80.5,73.4,30.03,ESE,107,0.0,4.0,79,0.00,,,0.00,33,Wunderground v.1.15,2013-05-25 23:05:00,
2013-05-25 18:10:00,80.3,73.6,30.03,ESE,108,0.0,4.0,80,0.00,,,0.00,30,Wunderground v.1.15,2013-05-25 23:10:00,
2013-05-25 18:15:00,80.2,73.5,30.03,SW,222,0.0,4.0,80,0.00,,,0.00,26,Wunderground v.1.15,2013-05-25 23:15:00,
2013-05-25 18:25:00,80.0,73.6,30.03,East,98,0.0,4.0,81,0.00,,,0.00,23,Wunderground v.1.15,2013-05-25 23:25:00,
2013-05-25 18:30:00,79.9,73.5,30.02,East,98,0.0,4.0,81,0.00,,,0.00,21,Wunderground v.1.15,2013-05-25 23:30:00,
2013-05-25 18:35:00,79.7,73.7,30.03,East,98,0.0,4.0,82,0.00,,,0.00,19,Wunderground v.1.15,2013-05-25 23:35:00,
2013-05-25 18:45:00,79.4,73.4,30.02,East,98,0.0,4.0,82,0.00,,,0.00,16,Wunderground v.1.15,2013-05-25 23:45:00,
2013-05-25 18:50:00,79.3,73.7,30.02,East,90,0.0,4.0,83,0.00,,,0.00,16,Wunderground v.1.15,2013-05-25 23:50:00,
2013-05-25 19:00:00,79.1,73.8,30.02,East,89,0.0,4.0,84,0.00,,,0.00,16,Wunderground v.1.15,2013-05-26 00:00:00,
2013-05-25 19:05:00,78.9,73.7,30.01,East,88,0.0,4.0,84,0.00,,,0.00,14,Wunderground v.1.15,2013-05-26 00:05:00,
2013-05-25 19:10:00,78.7,73.5,30.01,North,10,0.0,4.0,84,0.00,,,0.00,12,Wunderground v.1.15,2013-05-26 00:10:00,
2013-05-25 19:15:00,78.7,73.5,30.01,WNW,283,0.0,4.0,84,0.00,,,0.00,11,Wunderground v.1.15,2013-05-26 00:15:00,
2013-05-25 19:20:00,78.7,73.5,30.01,East,88,0.0,4.0,84,0.00,,,0.00,9,Wunderground v.1.15,2013-05-26 00:20:00,
2013-05-25 19:25:00,78.5,73.6,30.01,ENE,76,0.0,4.0,85,0.00,,,0.00,9,Wunderground v.1.15,2013-05-26 00:25:00,
2013-05-25 19:30:00,78.4,73.5,30.01,ENE,76,0.0,4.0,85,0.00,,,0.00,7,Wunderground v.1.15,2013-05-26 00:30:00,
2013-05-25 19:35:00,78.3,73.8,30.01,East,87,0.0,4.0,86,0.00,,,0.00,7,Wunderground v.1.15,2013-05-26 00:35:00,
2013-05-25 19:40:00,78.1,73.6,30.01,East,87,0.0,4.0,86,0.00,,,0.00,7,Wunderground v.1.15,2013-05-26 00:40:00,
2013-05-25 19:45:00,78.0,73.5,30.01,East,96,0.0,4.0,86,0.00,,,0.00,5,Wunderground v.1.15,2013-05-26 00:45:00,
2013-05-25 19:55:00,77.7,73.5,30.02,ENE,72,0.0,4.0,87,0.00,,,0.00,0,Wunderground v.1.15,2013-05-26 00:55:00,
2013-05-25 20:00:00,77.6,73.4,30.02,East,82,0.0,4.0,87,0.00,,,0.00,0,Wunderground v.1.15,2013-05-26 01:00:00,
2013-05-25 20:10:00,77.4,73.2,30.02,East,96,0.0,4.0,87,0.00,,,0.00,0,Wunderground v.1.15,2013-05-26 01:10:00,
2013-05-25 20:15:00,77.3,73.5,30.02,East,95,0.0,4.0,88,0.00,,,0.00,0,Wunderground v.1.15,2013-05-26 01:15:00,
2013-05-25 20:20:00,77.3,73.5,30.02,East,86,0.0,4.0,88,0.00,,,0.00,0,Wunderground v.1.15,2013-05-26 01:20:00,
2013-05-25 20:25:00,77.2,73.4,30.02,East,86,0.0,4.0,88,0.00,,,0.00,0,Wunderground v.1.15,2013-05-26 01:25:00,
2013-05-25 20:30:00,77.1,73.3,30.02,East,86,0.0,4.0,88,0.00,,,0.00,0,Wunderground v.1.15,2013-05-26 01:30:00,
2013-05-25 20:40:00,77.0,73.2,30.02,East,86,0.0,4.0,88,0.00,,,0.00,0,Wunderground v.1.15,2013-05-26 01:40:00,
2013-05-25 20:45:00,76.9,73.1,30.02,NNE,24,0.0,4.0,88,0.00,,,0.00,0,Wunderground v.1.15,2013-05-26 01:45:00,
2013-05-25 20:50:00,76.9,73.1,30.02,East,90,0.0,4.0,88,0.00,,,0.00,0,Wunderground v.1.15,2013-05-26 01:50:00,
2013-05-25 21:00:00,76.8,73.0,30.02,East,95,0.0,4.0,88,0.00,,,0.00,0,Wunderground v.1.15,2013-05-26 02:00:00,
2013-05-25 21:05:00,76.7,72.9,30.03,East,95,0.0,4.0,88,0.00,,,0.00,0,Wunderground v.1.15,2013-05-26 02:05:00,
2013-05-25 21:15:00,76.7,73.2,30.03,East,95,0.0,4.0,89,0.00,,,0.00,0,Wunderground v.1.15,2013-05-26 02:15:00,
2013-05-25 21:20:00,76.6,73.1,30.04,East,95,0.0,4.0,89,0.00,,,0.00,0,Wunderground v.1.15,2013-05-26 02:20:00,
2013-05-25 21:25:00,76.6,73.1,30.04,East,95,0.0,4.0,89,0.00,,,0.00,0,Wunderground v.1.15,2013-05-26 02:25:00,
2013-05-25 21:30:00,76.6,73.1,30.04,East,95,0.0,4.0,89,0.00,,,0.00,0,Wunderground v.1.15,2013-05-26 02:30:00,
2013-05-25 21:35:00,76.6,73.1,30.04,East,98,0.0,4.0,89,0.00,,,0.00,0,Wunderground v.1.15,2013-05-26 02:35:00,
2013-05-25 21:40:00,76.6,73.1,30.04,East,91,0.0,4.0,89,0.00,,,0.00,0,Wunderground v.1.15,2013-05-26 02:40:00,
2013-05-25 21:50:00,76.5,73.0,30.04,East,88,0.0,4.0,89,0.00,,,0.00,0,Wunderground v.1.15,2013-05-26 02:50:00,
2013-05-25 21:55:00,76.5,73.0,30.04,East,88,0.0,4.0,89,0.00,,,0.00,0,Wunderground v.1.15,2013-05-26 02:55:00,
2013-05-25 22:00:00,76.5,73.0,30.04,East,88,0.0,4.0,89,0.00,,,0.00,0,Wunderground v.1.15,2013-05-26 03:00:00,
2013-05-25 22:05:00,76.4,72.9,30.04,East,87,0.0,4.0,89,0.00,,,0.00,0,Wunderground v.1.15,2013-05-26 03:05:00,
2013-05-25 22:15:00,76.4,73.2,30.04,East,88,0.0,4.0,90,0.00,,,0.00,0,Wunderground v.1.15,2013-05-26 03:15:00,
2013-05-25 22:25:00,76.3,73.1,30.05,East,88,0.0,4.0,90,0.00,,,0.00,0,Wunderground v.1.15,2013-05-26 03:25:00,
2013-05-25 22:30:00,76.3,73.1,30.05,East,87,0.0,4.0,90,0.00,,,0.00,0,Wunderground v.1.15,2013-05-26 03:30:00,
2013-05-25 22:35:00,76.3,73.1,30.05,SE,136,0.0,4.0,90,0.00,,,0.00,0,Wunderground v.1.15,2013-05-26 03:35:00,
2013-05-25 22:40:00,76.3,73.1,30.06,East,99,0.0,4.0,90,0.00,,,0.00,0,Wunderground v.1.15,2013-05-26 03:40:00,
2013-05-25 22:45:00,76.2,73.1,30.06,East,99,0.0,4.0,90,0.00,,,0.00,0,Wunderground v.1.15,2013-05-26 03:45:00,
2013-05-25 22:50:00,76.2,73.1,30.06,East,99,0.0,4.0,90,0.00,,,0.00,0,Wunderground v.1.15,2013-05-26 03:50:00,
2013-05-25 22:55:00,76.2,73.1,30.05,East,99,0.0,4.0,90,0.00,,,0.00,0,Wunderground v.1.15,2013-05-26 03:55:00,
2013-05-25 23:00:00,76.1,73.0,30.05,East,99,0.0,4.0,90,0.00,,,0.00,0,Wunderground v.1.15,2013-05-26 04:00:00,
2013-05-25 23:05:00,76.1,73.0,30.05,East,99,0.0,4.0,90,0.00,,,0.00,0,Wunderground v.1.15,2013-05-26 04:05:00,
2013-05-25 23:10:00,76.1,73.3,30.05,East,99,0.0,4.0,91,0.00,,,0.00,0,Wunderground v.1.15,2013-05-26 04:10:00,
2013-05-25 23:15:00,76.0,73.2,30.05,East,99,0.0,4.0,91,0.00,,,0.00,0,Wunderground v.1.15,2013-05-26 04:15:00,
2013-05-25 23:25:00,76.0,73.2,30.05,East,99,0.0,4.0,91,0.00,,,0.00,0,Wunderground v.1.15,2013-05-26 04:25:00,
2013-05-25 23:30:00,75.9,73.1,30.05,East,99,0.0,4.0,91,0.00,,,0.00,0,Wunderground v.1.15,2013-05-26 04:30:00,
2013-05-25 23:35:00,75.9,73.1,30.05,East,99,0.0,4.0,91,0.00,,,0.00,0,Wunderground v.1.15,2013-05-26 04:35:00,
2013-05-25 23:40:00,75.9,73.1,30.05,East,99,0.0,4.0,91,0.00,,,0.00,0,Wunderground v.1.15,2013-05-26 04:40:00,
2013-05-25 23:45:00,75.9,73.1,30.05,East,99,0.0,4.0,91,0.00,,,0.00,0,Wunderground v.1.15,2013-05-26 04:45:00,
2013-05-25 23:50:00,75.9,73.1,30.05,East,100,0.0,4.0,91,0.00,,,0.00,0,Wunderground v.1.15,2013-05-26 04:50:00,
2013-05-25 23:55:00,75.9,73.1,30.05,East,99,0.0,4.0,91,0.00,,,0.00,0,Wunderground v.1.15,2013-05-26 04:55:00,